ECMWFFLT2_500_spd_132.txt.gz
Wind_Speed
19 20 22 22 23 23 22 19 18 19 20 21 20 19 19 18 19 20 21 20 20 19 16 15 17 17 16 16 16 15 14 13 13 13 12 11 11 11 12 12 12 12 13 13 13 13 13 12 12 11 10 9 10 11 11 10 10 10 9 9 9 9
21 22 23 24 24 24 22 19 18 19 20 22 21 20 18 18 18 20 21 21 20 20 18 16 17 18 18 17 17 17 16 14 14 14 14 13 12 12 12 12 12 12 13 14 14 14 13 13 14 13 12 11 11 12 12 11 10 11 9 9 9 9
23 23 24 25 25 25 23 20 19 20 21 22 22 20 18 18 18 20 22 21 21 20 19 17 17 18 18 18 18 18 17 16 16 16 15 14 13 13 13 13 13 13 13 14 15 15 15 14 14 14 13 13 13 13 14 12 11 11 11 11 11 10
25 25 26 27 26 26 23 20 20 21 22 23 22 20 18 18 18 20 22 21 20 20 19 18 18 19 19 19 19 19 18 18 17 16 16 15 15 15 14 14 14 14 14 15 15 15 15 15 15 14 13 13 13 14 14 13 12 13 12 12 12 12
26 27 28 28 28 26 22 21 21 22 23 23 22 20 19 19 20 21 22 21 20 20 20 19 19 19 20 20 20 20 20 19 18 17 17 16 16 16 16 16 15 15 15 16 15 15 15 15 15 14 13 12 12 12 13 13 14 14 13 14 14 13
28 29 30 30 29 26 22 21 21 23 24 23 22 21 20 21 21 22 21 20 19 20 20 20 20 20 20 21 21 21 21 20 19 18 17 17 17 18 17 17 16 16 16 16 16 16 15 14 14 13 12 12 12 12 12 12 14 14 13 14 15 15
29 31 32 31 29 25 22 21 22 24 24 23 22 21 21 22 22 22 21 19 18 19 20 21 21 21 21 21 21 21 22 21 20 18 18 17 18 18 18 18 17 16 16 17 17 16 15 15 14 13 12 11 12 12 12 13 14 14 14 15 15 16
32 33 33 31 28 25 22 21 22 24 23 22 21 21 22 22 23 23 21 19 18 19 20 21 22 22 22 22 22 22 22 22 20 19 19 19 19 19 19 18 17 16 17 17 16 15 15 15 16 15 13 12 12 13 13 14 14 14 15 16 16 17
34 35 34 30 27 24 21 21 22 24 23 22 21 22 22 23 24 23 20 19 20 20 20 21 22 22 23 22 23 23 22 23 22 19 18 19 20 19 18 17 17 17 17 16 15 16 15 15 16 16 14 13 14 14 15 15 15 15 16 17 18 19
35 35 32 29 26 23 21 21 22 23 23 23 22 23 23 23 24 23 21 20 21 22 21 21 22 22 22 23 24 23 23 21 18 16 16 16 16 16 16 17 17 17 16 16 16 17 17 17 17 17 16 15 15 16 17 17 16 16 16 17 18 19
35 33 31 29 26 23 22 21 22 23 23 23 24 25 25 24 23 22 22 23 24 24 23 22 22 21 21 22 22 20 18 15 15 16 16 16 15 17 18 16 15 16 16 18 19 19 19 19 19 18 18 18 18 18 19 18 17 16 16 17 18 19
34 31 29 28 25 23 22 22 22 24 24 25 26 27 27 25 23 22 23 24 25 25 24 23 22 21 20 20 20 20 18 16 16 17 17 17 16 18 17 13 15 18 17 19 22 21 22 21 20 20 20 21 20 20 20 20 19 17 17 17 18 20
33 30 28 27 25 23 22 22 24 25 26 27 28 28 28 26 24 23 23 24 24 25 24 23 21 21 21 21 21 23 22 19 18 17 18 18 19 19 17 15 19 21 18 19 21 22 23 22 22 22 22 21 21 20 20 19 20 19 18 18 18 19
32 29 27 26 24 23 23 24 26 27 28 29 29 28 28 26 25 24 23 23 23 24 23 22 21 21 21 22 23 24 22 20 20 20 20 19 21 20 20 21 19 16 16 18 20 22 23 24 23 23 22 21 20 19 19 19 19 19 19 20 20 20
31 28 26 25 24 24 25 27 28 29 29 29 29 28 27 25 25 24 22 22 23 24 23 21 21 21 23 24 24 24 22 20 21 22 22 21 23 21 21 21 15 11 15 18 20 23 24 24 24 23 22 20 19 19 18 18 18 19 19 21 22 24
31 27 25 24 24 26 28 29 30 31 30 28 28 27 26 25 25 24 22 22 23 24 23 21 21 22 24 24 25 26 23 21 22 22 22 23 25 23 20 18 14 14 19 19 21 23 24 24 24 22 21 20 19 18 17 17 18 19 19 21 24 26
30 26 25 25 26 28 30 31 32 31 29 27 26 25 26 25 24 23 22 23 23 23 23 23 23 24 24 24 24 24 23 23 23 21 22 24 25 22 20 18 15 18 22 20 22 23 23 23 23 22 21 19 18 17 17 17 18 20 21 23 26 28
29 25 25 26 28 30 31 33 33 31 28 25 25 25 25 25 23 23 23 23 22 22 23 24 24 25 25 24 23 23 23 23 23 22 23 24 23 21 18 15 14 20 24 21 22 23 23 22 22 22 21 19 17 17 16 17 19 21 23 25 27 28
29 25 26 28 29 31 32 33 32 30 27 25 24 24 24 23 23 23 23 22 23 23 24 24 25 26 26 25 24 23 23 24 23 23 23 22 22 21 17 14 18 24 24 22 23 24 23 23 22 21 20 18 16 16 16 17 20 23 24 26 27 27
29 27 27 30 30 31 32 32 31 29 27 25 24 23 22 23 23 22 22 22 23 23 24 24 25 27 27 26 25 23 23 24 24 23 23 22 20 19 18 21 25 25 23 23 24 25 25 23 21 19 17 15 14 15 17 19 22 23 25 26 26 26
30 28 29 30 31 31 31 30 29 28 27 25 24 23 23 23 22 21 22 23 23 23 24 25 26 27 28 27 26 24 23 24 24 23 23 23 22 23 25 27 26 23 23 24 24 25 25 22 18 15 14 13 13 15 18 21 22 23 24 25 25 26
30 29 30 31 31 32 31 29 28 26 26 25 24 24 24 23 22 22 22 23 24 24 25 25 26 27 28 27 26 25 25 25 25 24 23 23 25 27 27 26 23 22 23 23 24 24 23 19 14 11 12 13 15 17 20 22 22 22 23 24 24 25
30 31 31 31 31 31 30 28 26 25 25 25 24 25 24 23 22 23 24 24 25 25 25 25 26 27 27 26 25 25 25 25 25 24 25 25 26 26 25 23 22 21 22 22 23 22 20 16 11 9 11 13 16 18 20 23 23 23 23 23 24 25
32 33 32 31 31 30 28 26 26 26 25 24 25 25 25 23 23 24 25 25 25 25 26 25 26 27 27 26 25 24 24 25 25 26 25 25 24 24 22 22 21 21 22 21 21 20 16 12 10 11 12 14 15 16 18 21 22 23 23 24 25 26
33 34 33 31 29 27 26 25 25 25 25 24 25 25 24 23 23 24 24 25 25 25 26 26 27 28 28 28 26 24 24 25 26 26 25 24 23 22 21 21 21 21 21 20 18 15 11 10 11 13 14 15 16 16 17 18 20 22 24 25 26 27
34 34 32 30 29 27 25 24 24 24 24 24 24 23 22 22 23 23 23 23 25 25 26 27 27 28 29 28 27 25 24 24 24 24 24 24 23 21 20 20 20 20 19 16 13 10 9 10 12 14 16 17 17 17 18 18 20 22 24 26 27 28
33 33 31 30 29 27 25 25 24 24 24 24 23 22 21 21 22 23 23 24 25 26 26 27 28 28 29 28 28 27 26 25 24 24 23 23 23 21 20 20 20 19 17 14 10 8 9 11 13 15 17 18 18 19 20 22 23 24 25 27 29 30
32 31 30 29 27 26 25 25 25 24 24 24 24 23 23 22 23 23 24 25 25 25 26 26 27 27 28 28 28 28 27 26 25 24 23 24 24 21 20 21 20 18 15 12 8 8 10 12 14 16 17 18 20 21 23 24 25 26 26 27 29 30
31 30 29 28 27 25 25 25 25 24 24 25 25 24 24 24 24 24 24 25 25 25 24 25 27 28 28 28 28 27 27 27 26 25 25 24 22 20 21 22 21 17 12 9 8 9 11 13 14 15 17 19 21 23 24 25 26 28 28 29 29 29
30 29 27 26 25 25 25 25 25 26 26 26 26 26 25 25 25 25 25 25 25 25 25 26 27 28 28 28 28 27 26 26 24 23 22 19 18 20 21 20 17 13 9 8 9 10 12 13 14 16 18 20 22 24 25 26 28 29 30 30 30 30
29 27 26 25 24 24 24 24 24 25 25 25 24 24 24 25 25 24 24 25 25 25 26 27 28 28 28 27 28 27 25 22 21 19 17 16 18 19 17 14 11 9 7 8 9 10 12 13 15 16 19 21 22 24 25 27 28 29 29 30 30 31
26 26 26 25 24 24 24 22 22 23 23 23 23 23 24 24 24 24 25 26 26 26 27 27 28 28 28 27 25 23 21 19 18 17 16 17 17 15 11 9 8 7 7 8 10 11 12 14 15 18 20 21 23 24 26 28 28 28 29 29 31 32
26 25 24 24 23 23 22 22 22 23 23 23 23 23 23 23 24 25 26 27 27 28 28 28 28 28 26 23 20 18 17 16 16 16 17 17 14 10 10 9 8 8 9 10 11 12 13 14 17 19 20 22 23 25 27 27 27 28 29 30 31 32
26 24 22 22 22 22 22 22 22 22 22 23 23 22 22 23 25 26 27 28 27 27 28 28 28 25 21 18 17 16 16 15 16 17 18 15 12 11 11 10 9 9 10 11 12 12 13 15 18 19 21 23 24 26 26 27 27 28 29 31 32 33
25 24 23 22 22 22 22 21 21 22 22 23 22 22 23 23 25 26 27 28 27 27 27 27 25 21 16 15 16 17 16 16 17 18 17 14 13 12 11 10 10 10 11 11 12 13 14 16 19 20 22 23 24 26 26 26 27 29 30 31 32 33
25 24 24 23 22 22 21 21 21 22 23 23 23 23 23 23 24 26 27 27 28 28 27 25 23 19 15 15 17 19 18 17 17 17 15 14 13 11 10 10 10 11 12 12 12 14 16 18 20 21 22 24 25 25 26 27 28 29 31 32 33 33
26 26 25 23 22 21 20 21 21 22 23 23 23 23 23 23 25 26 27 27 27 27 27 26 24 19 16 17 19 18 15 13 14 14 13 12 11 10 10 11 11 12 12 12 13 15 17 19 21 22 23 24 25 26 27 28 29 30 32 32 33 33

ECMWFFLT2_500_spd_135.txt.gz
Wind_Speed
13 14 14 15 16 16 17 17 18 18 18 18 18 18 18 18 19 17 17 17 18 19 19 20 19 18 18 18 17 17 16 15 14 14 13 13 12 12 12 12 11 10 10 11 11 12 12 12 12 11 11 12 12 12 13 13 12 10 9 8 7 7
14 15 16 16 17 18 18 18 19 19 19 19 18 19 19 19 19 18 17 17 18 19 19 20 19 18 18 18 18 18 17 17 16 15 15 14 14 13 13 13 12 11 11 11 11 11 12 12 12 12 12 12 12 13 13 13 12 10 9 8 8 8
15 16 17 18 19 19 19 19 20 20 19 19 19 19 19 19 19 18 18 18 19 19 19 20 19 18 18 18 18 18 18 18 17 16 16 16 15 15 15 15 14 13 12 12 12 12 12 12 13 13 13 12 11 12 14 13 12 10 9 9 9 9
16 17 19 19 20 20 20 20 21 20 19 19 20 20 20 20 19 19 18 18 19 19 19 19 19 18 18 18 18 18 18 19 18 18 17 17 17 17 17 16 16 15 14 14 14 13 12 12 13 13 12 11 11 12 13 13 13 11 11 11 11 10
18 19 20 21 22 22 21 22 21 20 19 20 20 21 21 20 19 19 18 18 19 19 19 19 19 19 19 18 18 19 19 19 19 18 18 17 17 17 17 17 18 17 16 15 15 14 13 13 13 13 12 11 12 12 12 12 13 13 12 12 12 12
19 20 21 23 23 23 23 23 22 20 20 20 20 21 21 20 19 19 18 18 18 19 19 18 19 19 20 20 20 20 20 20 20 19 18 17 17 17 17 17 17 17 17 17 17 15 14 15 15 14 13 12 12 12 12 12 12 13 13 13 13 14
20 22 23 25 25 25 25 24 22 20 20 20 21 22 22 21 19 18 18 19 19 19 18 18 18 19 21 20 20 20 20 20 19 19 18 17 17 17 18 19 18 18 17 17 19 17 14 14 15 15 14 13 14 13 13 13 12 13 14 14 15 15
22 24 25 27 27 27 26 23 21 21 20 21 22 22 22 21 19 18 19 20 20 19 18 18 18 20 20 21 21 20 20 19 18 19 19 18 19 19 20 20 20 19 18 17 17 14 12 12 13 15 15 15 15 14 15 15 14 14 15 16 16 17
25 27 27 28 29 28 26 22 21 21 20 21 22 23 22 21 19 19 20 21 21 20 19 18 19 20 21 21 21 21 21 19 17 18 18 18 19 19 19 18 17 16 17 16 12 9 10 13 14 16 16 16 16 16 16 16 16 16 16 17 17 18
27 28 29 29 29 28 25 22 21 21 21 22 23 24 23 21 19 19 21 22 21 20 19 18 19 20 22 22 21 21 19 16 15 16 16 16 16 17 17 16 17 17 16 13 9 8 10 12 15 17 17 17 17 17 17 18 18 18 18 18 18 18
29 30 30 30 29 27 24 22 21 21 21 22 23 24 24 22 20 20 21 22 21 20 19 19 19 19 21 21 20 19 17 15 15 15 15 16 15 16 16 16 17 17 16 11 8 9 10 11 17 19 19 18 17 17 18 19 19 18 18 18 18 18
31 31 31 30 28 26 24 22 22 22 22 22 24 25 26 24 23 22 23 22 21 20 20 20 19 20 20 21 20 18 17 18 16 14 15 16 16 17 17 17 17 17 15 12 12 12 10 14 19 20 20 19 18 18 17 18 18 18 18 17 17 18
32 32 32 30 28 26 24 23 22 22 22 23 24 26 27 26 25 25 23 21 20 21 21 19 19 20 20 20 20 18 17 18 16 15 15 16 18 19 18 18 18 18 17 19 20 16 13 16 19 20 20 19 19 18 17 17 17 17 17 16 17 17
33 33 32 30 27 26 25 23 23 22 23 23 24 26 28 28 27 25 22 21 21 21 20 19 20 20 20 20 20 19 18 18 16 16 17 17 18 19 20 20 20 20 20 22 20 15 16 18 18 18 19 19 18 17 16 16 15 15 15 14 16 17
35 34 33 30 27 27 25 23 23 23 23 23 25 27 29 28 27 24 22 21 21 21 20 20 20 20 20 20 20 20 19 18 17 16 17 18 18 19 20 22 22 21 21 19 15 15 21 19 17 17 17 17 16 16 16 16 15 15 15 14 15 16
36 35 33 30 28 27 26 23 23 23 23 24 26 28 29 28 25 23 22 22 21 21 20 19 19 19 20 20 20 19 19 19 17 16 17 17 18 19 20 22 22 21 20 17 15 20 24 18 17 17 16 16 16 16 16 16 15 16 17 18 18 19
37 36 34 31 29 28 25 23 24 24 24 26 27 28 28 26 24 22 23 22 21 21 19 19 19 20 20 21 21 20 19 19 18 17 18 18 18 19 20 22 22 19 17 14 16 23 23 19 18 16 16 16 15 16 17 17 16 16 18 19 21 22
38 36 34 31 30 28 25 24 24 24 25 27 28 28 27 25 23 22 23 23 22 21 19 19 20 21 21 21 21 21 19 19 19 19 19 18 18 19 19 21 21 17 13 13 19 22 20 18 17 16 17 15 14 15 16 17 17 16 18 19 21 22
39 36 34 32 30 28 25 24 24 25 26 28 28 28 26 24 21 21 22 22 22 20 19 19 20 22 22 22 22 21 20 18 19 19 19 19 19 19 18 19 19 14 13 17 22 20 18 18 17 17 16 15 13 13 15 16 15 16 18 20 21 21
39 36 33 32 30 27 24 24 25 26 27 28 28 27 25 22 20 20 21 21 21 19 19 20 21 22 22 22 22 22 20 20 20 19 19 20 20 19 18 18 18 16 18 22 21 18 18 17 17 16 15 14 12 11 13 14 15 17 19 20 20 20
38 35 33 32 30 27 24 24 25 26 27 28 27 26 24 21 19 19 20 20 19 19 20 21 21 22 22 23 22 22 21 21 20 20 20 21 21 20 19 19 19 21 23 21 18 17 17 16 16 15 14 12 10 10 12 13 15 18 19 19 19 20
36 34 33 32 29 26 24 24 26 27 27 27 26 25 22 20 19 19 19 19 19 20 21 22 22 22 23 23 22 22 22 21 21 21 21 20 20 20 20 21 21 22 22 19 17 17 16 15 15 14 12 9 9 10 12 14 15 17 18 18 19 20
34 33 33 31 29 26 25 25 27 28 27 27 25 23 21 20 19 18 18 19 20 21 22 23 23 23 23 23 23 22 22 21 21 21 21 21 21 21 21 22 21 20 18 17 17 17 15 14 13 12 10 8 9 11 13 14 15 16 17 18 19 21
32 32 32 30 28 27 26 27 28 28 27 26 24 22 21 20 19 18 18 19 20 22 22 22 22 23 23 23 23 23 22 21 20 21 22 22 22 20 20 20 20 19 17 17 17 16 15 13 11 9 7 8 10 12 14 15 15 16 17 19 20 21
31 32 31 29 28 27 27 28 28 27 26 25 23 22 21 20 19 19 19 19 20 21 21 21 22 22 23 23 23 23 23 22 22 22 22 22 22 20 19 19 19 18 17 17 17 15 12 9 7 7 7 8 10 12 14 15 16 17 18 19 20 22
31 32 30 29 28 28 28 28 28 27 25 24 23 22 21 20 20 19 19 19 20 21 21 21 22 23 23 23 23 22 22 23 23 23 23 23 23 21 18 18 18 17 16 16 15 13 9 5 6 7 7 8 10 11 13 14 16 17 19 20 21 22
32 32 30 29 29 28 28 28 27 26 24 23 22 21 20 21 21 20 20 20 21 22 22 22 23 23 23 22 22 21 22 23 23 24 24 23 23 21 19 18 18 16 15 16 14 11 7 6 7 7 7 9 10 11 12 14 15 17 19 22 23 23
33 32 31 30 29 28 28 28 26 25 23 23 22 20 20 21 21 20 20 21 22 22 22 23 23 23 22 22 22 23 24 24 24 24 24 24 24 21 18 17 16 14 15 16 13 9 8 8 8 8 9 9 10 11 13 14 16 18 20 22 23 23
33 32 31 30 29 28 28 27 25 24 23 22 21 20 21 21 21 21 22 22 21 22 22 22 22 22 22 22 23 24 25 24 24 24 24 23 21 17 15 15 13 14 16 14 10 9 9 9 8 9 9 10 11 12 14 16 17 19 21 21 22 23
33 33 31 29 28 28 28 26 25 24 22 21 20 20 21 21 20 20 21 20 20 21 21 21 22 22 22 23 24 25 25 25 24 23 22 20 17 15 15 13 13 14 13 9 8 9 9 8 9 9 10 11 13 14 16 17 19 20 21 21 22 23
33 32 30 29 28 28 27 26 25 23 22 20 20 19 19 18 19 19 19 19 19 19 20 22 22 23 23 24 25 26 26 26 23 21 19 18 18 16 14 13 13 11 8 7 9 9 8 8 9 9 10 12 14 16 18 19 20 21 21 21 23 24
32 30 29 29 28 27 26 25 24 23 21 20 19 17 17 17 18 18 19 18 18 19 21 22 23 23 23 24 25 26 26 25 22 19 17 16 16 13 12 12 11 8 7 8 9 9 9 9 8 9 11 13 16 17 19 20 20 21 22 23 24 26
31 29 29 28 27 26 25 24 25 23 21 20 18 16 16 16 17 18 18 18 19 20 21 23 23 23 23 23 25 25 23 22 19 16 14 13 12 11 12 12 8 6 8 10 9 9 9 8 8 10 12 15 17 18 20 20 21 22 23 24 26 27
30 29 28 27 25 25 24 23 24 23 21 19 17 16 16 16 17 17 18 19 19 20 22 23 23 23 24 23 23 21 18 17 15 14 12 11 11 11 12 10 7 8 10 10 9 9 8 8 10 12 14 16 18 20 20 21 22 23 24 25 27 28
30 29 28 27 26 25 23 22 22 20 19 18 17 17 17 17 18 18 18 19 19 20 22 23 23 23 23 23 21 18 15 14 14 13 12 11 11 11 10 8 8 10 10 10 9 9 8 9 11 13 15 17 19 20 21 22 23 24 25 26 28 29
30 29 28 27 26 25 23 21 20 18 18 17 17 17 17 17 17 18 18 18 18 20 21 22 22 21 23 23 21 18 17 17 15 12 10 10 10 10 9 8 9 10 10 10 9 9 9 10 12 14 17 19 20 21 22 23 24 25 26 28 29 31
31 30 28 27 26 24 22 20 19 18 16 16 17 18 17 17 17 17 17 18 18 20 21 21 20 20 21 21 19 18 16 14 12 9 7 8 9 9 9 9 10 10 10 10 10 10 10 12 14 16 18 20 21 22 23 24 25 26 27 29 30 31

ECMWFFLT2_500_spd_138.txt.gz
Wind_Speed
6 5 5 6 8 10 13 15 17 19 19 20 19 18 16 16 15 15 16 16 16 16 17 19 20 18 15 14 14 14 14 14 15 15 15 15 15 16 16 16 15 15 15 15 15 15 15 14 14 14 13 12 12 12 12 11 11 10 9 7 6 7
7 6 6 7 9 12 14 17 19 20 20 21 20 20 18 17 16 15 16 16 16 16 17 18 20 18 15 14 14 14 14 15 15 15 15 16 16 16 16 16 16 16 16 16 16 16 15 15 14 14 13 12 12 12 11 11 10 9 8 7 7 7
9 7 7 8 10 13 16 18 20 21 21 21 22 21 19 18 17 16 16 16 16 16 16 18 19 17 14 14 14 14 14 15 15 15 14 15 15 16 16 16 16 16 16 15 15 15 15 15 15 15 15 13 12 11 11 11 10 9 9 9 9 8
10 8 8 9 11 14 17 20 21 22 22 22 22 22 20 19 18 17 16 16 16 16 16 17 18 16 14 15 16 16 15 15 14 14 14 15 16 16 16 16 16 16 16 16 16 14 13 13 15 16 15 13 12 11 11 11 10 9 10 10 10 10
11 9 9 10 13 16 18 21 23 23 23 22 23 23 21 21 20 18 17 16 16 16 16 17 17 16 15 16 17 16 16 15 15 15 15 16 17 17 17 17 16 17 18 18 17 17 15 13 13 14 14 12 12 11 11 11 11 11 12 12 12 12
13 11 11 12 14 17 20 22 24 24 23 23 23 23 22 22 21 19 18 17 16 16 16 17 17 16 15 16 16 16 15 14 14 14 14 15 16 17 17 17 17 18 19 19 19 18 17 16 14 12 11 13 12 10 10 11 12 13 13 13 14 14
14 13 12 14 16 19 22 23 25 25 23 23 23 23 23 22 21 20 19 17 16 16 16 17 17 16 16 16 16 16 15 14 13 13 12 13 15 16 16 17 17 18 18 18 17 16 15 14 13 11 11 13 12 10 10 11 12 13 14 14 15 16
16 14 14 17 19 21 23 24 25 25 23 23 23 23 23 23 22 20 19 18 18 18 17 17 17 17 17 17 17 17 15 14 12 11 11 12 13 14 14 14 14 15 15 16 16 15 12 10 11 12 12 12 11 11 12 12 13 14 15 16 16 16
17 16 17 19 21 23 25 25 25 24 23 23 23 23 23 23 22 20 19 19 19 19 18 17 16 17 17 17 18 17 16 13 11 10 11 13 13 13 12 12 12 13 13 15 16 12 8 9 11 13 13 11 11 13 15 14 15 16 17 17 16 16
19 19 20 22 23 25 25 26 26 24 23 23 23 23 24 23 21 20 20 20 20 19 18 16 16 16 17 17 17 16 15 14 11 11 12 13 14 13 12 11 12 13 13 14 14 10 7 8 11 13 14 12 10 15 17 16 17 16 17 17 16 16
21 21 23 24 25 26 26 26 26 24 23 23 23 24 24 23 22 21 21 21 20 18 17 16 16 16 15 16 16 15 15 14 12 12 12 13 13 14 13 13 13 13 14 13 13 10 9 10 13 13 14 11 10 16 19 17 17 16 16 17 17 17
23 23 24 26 26 26 26 27 26 24 23 23 23 24 24 23 22 22 22 21 20 18 17 16 17 16 16 16 16 15 14 13 12 12 13 13 14 15 15 15 15 14 14 15 14 12 13 15 16 14 15 13 11 17 21 18 17 16 16 17 17 17
23 23 24 26 27 27 27 27 26 24 23 23 23 24 23 23 23 22 21 21 20 18 16 16 16 16 16 16 15 15 14 13 13 13 14 14 15 15 16 17 16 16 15 16 16 15 16 16 14 14 18 16 15 19 20 17 16 15 16 17 17 17
23 22 23 25 26 28 28 28 27 24 23 23 24 24 23 23 23 22 21 21 20 18 16 16 16 15 15 15 14 15 14 14 14 14 14 15 16 16 17 17 16 16 16 17 17 16 16 14 13 17 19 16 17 19 18 16 15 16 16 17 17 17
25 24 24 25 27 29 29 28 27 25 23 23 24 24 23 23 23 22 21 21 19 17 16 15 15 15 14 15 14 15 14 14 13 14 14 14 15 16 17 17 16 16 16 18 16 14 13 13 15 20 18 15 17 17 16 15 16 16 16 16 16 17
28 27 27 28 30 31 30 28 27 25 23 24 24 24 23 24 23 22 21 20 19 17 15 14 14 14 14 15 15 15 14 13 13 13 13 13 14 16 16 16 16 16 17 18 16 13 11 13 16 20 17 15 15 15 15 15 15 16 15 15 16 17
29 28 28 30 32 32 31 30 28 26 24 24 24 24 23 23 22 21 21 19 17 16 15 14 14 13 14 15 15 15 15 14 13 13 13 13 14 15 15 15 15 16 17 17 15 11 11 14 18 18 15 14 14 15 15 14 14 14 14 15 16 16
31 30 30 31 32 32 31 30 28 27 25 24 24 24 23 23 22 21 20 18 16 15 15 14 13 13 14 15 16 16 16 16 15 14 13 14 15 15 16 16 15 16 16 16 13 10 12 17 18 16 14 13 14 15 14 14 13 13 14 15 16 16
33 31 31 33 34 33 32 30 29 27 26 25 24 24 23 23 22 20 19 16 15 15 15 14 13 13 15 16 17 17 17 17 16 16 15 15 15 15 16 16 16 15 14 14 13 13 17 19 17 15 13 13 14 15 15 13 12 13 14 15 16 17
34 33 33 34 35 34 32 30 29 27 26 25 24 23 23 23 22 21 18 15 14 15 14 14 14 15 16 17 18 18 18 17 17 17 16 15 15 15 16 16 16 15 14 15 15 17 19 18 16 14 12 12 14 15 14 12 12 13 14 16 17 17
35 34 34 35 34 34 32 30 28 27 26 25 24 23 23 23 23 21 18 16 15 15 14 14 15 16 17 17 17 17 17 17 17 17 17 16 15 14 16 17 17 17 16 16 17 18 18 16 14 12 11 12 13 14 13 12 13 14 15 16 16 17
33 33 34 34 33 32 32 30 28 27 25 24 23 22 23 23 22 21 19 17 15 15 14 14 15 16 16 16 17 17 17 17 17 16 16 16 15 15 16 17 19 19 17 16 17 17 16 15 13 10 10 11 12 13 13 13 14 14 15 16 16 16
31 32 33 33 33 32 31 29 27 26 25 24 23 22 22 22 22 21 18 17 16 15 14 14 14 15 16 16 17 17 18 18 17 17 16 16 15 16 17 18 19 19 17 15 15 15 14 14 12 9 10 11 12 12 12 13 14 15 15 16 16 17
31 32 32 33 33 32 30 28 27 26 25 23 22 22 22 21 21 20 18 17 16 14 14 14 14 15 15 16 17 18 18 18 18 18 17 16 16 17 18 19 19 18 16 14 14 15 14 12 10 8 9 11 12 12 13 13 14 15 15 16 17 17
31 32 32 32 32 31 29 27 27 26 24 23 22 22 22 21 20 19 17 17 16 15 14 14 15 15 16 16 17 18 18 18 18 18 18 17 17 18 18 20 21 18 15 14 15 14 12 10 8 7 10 12 13 13 13 14 14 14 15 16 17 18
31 31 31 31 31 30 28 27 27 26 24 23 22 22 21 21 20 18 17 17 16 16 15 15 15 16 16 16 17 17 17 18 18 19 19 19 18 19 19 20 20 16 14 15 15 12 9 8 7 8 11 13 13 13 13 14 14 14 15 16 17 18
30 30 30 31 31 30 29 28 28 26 24 23 22 21 21 20 19 17 17 17 16 16 16 16 16 16 16 16 16 17 17 19 19 20 20 20 20 19 18 20 18 15 15 15 13 10 8 8 8 10 13 14 14 13 13 13 14 15 16 17 17 18
28 29 29 31 31 31 30 28 28 26 24 23 22 22 21 20 18 17 17 16 16 16 17 16 16 15 15 16 17 17 18 20 21 21 21 21 20 19 18 17 15 14 15 14 12 9 7 9 10 12 14 14 13 13 13 13 14 15 16 17 18 19
28 28 29 31 32 32 31 29 27 26 24 23 22 21 21 19 18 17 17 17 16 16 16 15 14 14 15 16 18 19 19 20 22 22 22 22 21 18 15 14 14 15 15 13 11 9 8 10 13 14 14 13 13 13 12 13 14 15 17 18 19 19
28 28 30 31 32 32 31 29 27 26 24 23 22 21 20 19 18 17 16 16 16 15 15 15 14 14 16 17 19 20 20 20 21 22 23 22 21 17 13 14 16 15 14 12 10 9 10 12 14 14 14 13 13 12 12 13 14 16 17 19 20 20
29 29 30 30 31 31 30 29 28 26 24 22 21 20 19 18 17 16 15 14 14 14 14 15 15 16 17 19 20 21 20 20 21 23 22 21 19 17 14 15 16 13 11 11 10 10 11 12 13 14 13 13 12 12 13 14 15 16 18 19 20 21
29 29 30 30 31 31 30 28 28 26 23 22 21 19 18 17 17 16 15 14 14 14 14 15 16 17 18 20 21 21 21 20 21 21 20 17 16 15 14 15 13 11 10 11 11 11 11 12 13 13 13 12 11 12 13 15 16 18 19 20 21 22
28 29 30 30 30 30 29 28 27 25 23 21 20 19 18 18 18 17 16 14 14 14 15 16 17 19 20 21 21 21 21 20 20 19 17 14 12 12 13 13 11 10 11 12 12 12 12 13 13 13 12 11 11 12 14 16 18 19 21 21 22 23
29 30 30 29 29 29 28 28 27 24 22 20 19 19 18 19 19 18 17 15 15 15 16 17 18 20 21 21 21 21 20 19 19 17 15 12 11 12 12 10 10 12 13 13 12 12 13 13 13 13 12 11 12 13 16 18 19 21 22 22 23 24
29 29 29 29 28 28 27 27 26 23 20 19 18 18 18 19 20 19 18 17 16 16 16 18 20 21 21 21 20 20 21 20 17 15 14 13 12 12 11 10 10 12 13 12 12 12 13 13 12 12 12 12 13 15 17 19 21 22 23 23 23 24
29 29 28 28 29 28 26 26 24 21 19 17 17 17 18 19 19 19 18 17 16 16 17 19 20 21 21 20 19 18 20 19 15 13 13 13 13 12 11 10 10 11 11 11 11 11 12 12 12 12 12 13 14 17 19 21 22 23 24 24 25 25
29 28 28 28 28 27 25 25 23 20 18 18 18 18 18 18 18 18 17 16 16 17 18 20 21 21 21 19 16 16 16 14 11 10 10 10 10 10 9 10 10 10 10 10 10 11 11 12 12 12 13 14 16 18 21 22 24 24 25 25 26 27

ECMWFFLT2_500_spd_141.txt.gz
Wind_Speed
10 9 7 6 5 5 6 8 11 14 16 17 19 20 21 21 20 20 17 16 15 14 13 12 12 13 13 11 11 12 12 12 11 12 12 13 13 14 14 13 14 14 14 15 15 14 13 11 11 11 11 11 12 12 11 11 10 10 9 8 7 8
10 8 7 7 6 6 7 9 12 15 17 19 20 20 21 21 20 20 18 17 16 14 12 12 12 13 13 11 11 12 12 12 11 11 12 13 14 14 14 14 14 15 15 15 16 16 14 13 13 12 12 11 11 10 11 11 11 11 10 9 7 6
10 9 8 8 7 7 8 10 13 16 18 20 21 21 20 20 20 20 19 18 16 13 12 12 12 13 13 11 11 12 12 12 11 12 12 13 13 14 14 14 15 15 15 15 15 16 15 14 14 14 14 12 10 9 9 10 11 11 10 9 8 6
10 10 9 9 8 8 9 11 14 17 19 21 21 21 20 20 20 20 19 18 16 14 13 12 12 13 12 11 11 11 12 12 12 12 12 12 13 14 14 14 14 15 15 15 15 16 16 15 15 15 15 13 11 9 9 10 11 11 10 10 9 8
12 11 11 10 9 9 10 13 15 18 20 22 22 21 20 20 21 20 19 18 16 14 13 12 12 13 12 11 11 11 12 12 12 12 13 13 13 14 14 14 15 15 15 16 16 16 15 15 14 14 15 13 11 11 11 11 11 11 11 11 11 11
13 12 11 10 9 10 12 14 17 19 22 22 22 21 20 20 21 20 19 17 16 15 14 13 12 12 12 12 11 11 11 11 11 12 12 12 12 13 13 14 14 14 14 14 14 14 14 14 13 13 13 11 11 12 13 12 12 12 12 12 12 12
13 11 11 10 10 11 13 15 18 21 22 22 22 21 20 20 21 20 19 17 16 15 14 13 12 12 12 12 11 10 10 10 10 10 10 9 10 12 12 13 13 12 12 12 13 14 15 14 12 10 9 9 11 14 15 15 13 13 13 13 13 13
12 12 11 11 11 12 14 16 19 21 22 22 22 21 20 21 21 21 19 17 16 16 15 14 13 12 12 12 11 10 10 9 9 9 8 9 10 11 11 12 12 11 11 11 13 14 15 13 10 7 7 10 12 14 16 15 13 13 14 14 13 13
12 12 11 11 12 13 16 18 20 21 22 22 21 21 21 21 21 21 19 17 16 16 16 15 14 13 12 11 11 10 10 10 9 8 8 10 11 11 11 11 11 11 11 12 13 13 14 11 9 7 8 11 12 14 16 15 14 15 14 15 13 12
12 12 11 12 13 15 17 20 21 21 21 21 21 21 21 22 22 21 19 17 16 16 16 16 15 13 12 11 10 10 10 10 9 8 8 10 11 12 11 11 10 10 12 13 14 13 13 11 9 9 10 13 13 14 14 15 16 17 15 15 14 13
12 12 13 13 15 17 18 20 21 21 21 21 20 21 22 22 22 21 19 17 16 16 17 16 15 14 13 12 11 10 10 10 10 9 8 10 11 12 12 12 11 11 11 13 14 14 14 13 12 13 15 15 14 15 15 16 18 18 16 16 15 13
13 12 14 15 17 18 18 19 19 19 20 20 20 21 22 22 22 20 18 17 16 16 17 16 16 14 13 12 12 11 10 10 10 9 9 10 11 12 12 12 11 11 12 12 13 14 14 14 15 17 19 16 15 17 16 16 18 17 17 17 15 14
14 14 14 16 18 18 19 20 20 21 21 21 21 21 23 23 22 20 18 16 16 16 17 17 16 14 13 13 12 11 11 10 10 10 9 10 10 11 11 11 11 12 13 13 13 14 14 15 16 18 18 15 15 17 15 15 15 16 17 17 16 16
16 15 16 17 19 20 21 23 24 24 23 22 22 22 23 23 22 19 17 16 16 16 16 16 15 14 13 13 13 12 12 12 11 10 10 9 10 10 10 11 12 13 14 14 14 15 16 16 16 16 16 15 16 16 14 14 14 16 17 16 17 17
18 19 19 20 21 22 23 24 25 25 24 23 22 22 23 23 22 19 18 17 16 16 15 15 14 14 13 13 13 13 13 13 12 11 10 10 10 10 10 11 12 12 14 15 15 16 16 16 15 14 14 15 16 15 13 13 14 16 16 16 17 18
21 22 22 23 23 24 24 25 26 25 24 23 23 22 23 23 22 19 18 17 17 15 15 14 14 14 14 13 13 13 14 14 13 12 11 11 11 11 11 12 13 13 13 15 16 15 15 14 13 13 14 15 15 13 11 12 14 15 16 16 17 18
21 24 26 26 26 26 26 27 27 26 25 24 23 22 23 23 21 19 18 18 16 15 15 15 14 14 14 13 13 14 14 14 14 13 12 11 11 12 13 14 14 13 14 15 16 15 14 12 12 13 15 15 14 12 11 12 14 15 16 16 17 18
21 23 27 29 29 29 29 28 28 26 25 24 23 22 23 23 21 19 18 18 16 15 15 15 15 14 13 13 14 14 14 15 15 14 13 12 11 12 13 15 15 15 15 15 15 14 13 12 13 15 18 16 13 12 11 12 14 15 15 16 17 18
24 25 29 30 31 30 30 30 29 27 26 24 23 22 23 23 21 19 18 17 16 15 15 15 15 14 13 13 14 14 14 14 14 14 13 12 12 12 13 14 15 15 15 15 15 15 15 14 15 18 19 16 13 12 12 13 13 14 15 16 17 19
31 30 32 31 31 31 31 30 30 28 26 24 22 21 23 22 20 19 18 17 16 16 16 15 14 13 13 13 14 14 13 13 13 13 13 13 12 12 11 12 14 14 15 15 16 17 17 17 17 19 18 15 13 13 13 12 12 13 15 17 18 19
34 33 33 31 31 32 31 31 30 29 26 23 21 21 22 22 20 19 18 18 17 16 15 14 14 13 13 13 13 13 12 12 13 13 13 13 13 12 11 11 12 13 14 16 17 18 18 17 18 18 16 15 14 14 13 11 12 13 15 17 19 19
34 34 33 31 31 32 31 31 30 28 25 22 21 21 22 21 20 19 18 18 17 16 15 14 13 13 13 13 13 12 12 12 13 14 14 13 13 12 12 11 12 13 14 16 18 18 17 15 16 16 16 15 15 14 13 11 12 14 16 18 19 19
34 34 32 31 31 31 31 30 29 27 25 22 21 21 21 21 19 19 18 18 16 15 15 14 14 14 13 13 13 12 13 13 14 14 14 13 12 12 13 12 12 13 15 17 19 19 17 15 16 16 16 16 15 14 12 11 12 14 16 18 18 19
35 33 31 30 31 32 31 30 28 27 24 22 21 22 21 21 19 19 18 17 15 15 15 15 15 15 14 13 13 13 13 14 14 14 13 13 13 13 14 14 14 14 16 17 20 19 16 15 16 16 16 16 15 14 12 12 13 15 17 18 18 19
35 33 30 30 30 31 30 29 28 26 23 22 22 22 22 21 20 19 18 16 15 15 16 16 16 16 15 14 14 13 14 14 14 14 13 14 14 15 16 16 15 16 16 17 18 17 15 15 16 16 16 16 14 13 12 13 14 16 18 18 18 19
35 32 29 29 29 29 29 29 28 26 23 22 22 23 22 21 20 20 18 16 15 16 17 17 16 16 16 15 15 14 14 14 14 14 14 15 16 17 17 16 16 15 16 17 16 15 15 15 15 16 16 15 14 13 13 14 15 17 18 18 18 19
34 31 28 28 28 28 28 29 29 27 24 22 23 23 22 21 21 20 18 16 16 17 17 16 16 16 16 15 15 14 14 14 15 15 16 17 18 19 19 18 17 15 14 15 16 16 16 15 14 15 16 15 14 13 14 15 17 17 18 18 19 19
32 29 27 27 27 27 28 30 30 28 25 23 24 23 22 22 22 20 17 17 17 17 17 16 16 16 16 16 15 15 15 16 16 16 17 18 18 20 20 19 19 16 14 15 16 16 16 15 14 15 15 14 14 13 15 17 18 18 18 18 19 20
30 28 28 27 27 27 28 29 30 28 25 24 25 24 23 23 22 19 17 18 18 17 17 16 15 15 15 16 16 16 16 17 17 17 17 18 19 20 20 20 20 18 15 14 15 16 16 15 15 15 15 14 14 15 16 18 18 18 19 19 20 21
29 28 28 26 27 27 28 29 30 28 26 25 25 24 24 23 21 18 18 18 18 17 16 15 15 16 16 17 17 18 18 18 18 17 18 19 20 20 20 20 19 16 15 15 16 16 15 15 15 15 15 15 15 16 18 18 18 19 19 20 21 22
29 27 27 26 27 28 29 30 29 28 26 26 25 25 24 22 20 19 18 18 17 16 15 15 16 16 17 18 18 19 19 18 18 18 19 19 20 20 18 18 15 13 15 17 17 16 15 15 15 15 15 15 16 17 18 18 18 19 20 21 22 22
27 26 26 27 28 28 29 30 30 28 26 26 25 24 23 22 20 19 18 17 17 16 15 16 17 17 18 19 19 20 19 19 19 19 19 19 19 18 16 15 13 12 15 18 18 16 16 16 16 15 16 17 18 18 19 18 19 19 21 22 23 23
25 25 26 27 28 28 30 31 30 28 26 26 25 24 22 21 20 19 18 17 17 16 16 17 18 18 19 19 20 20 20 19 19 20 20 19 18 17 15 14 13 13 16 18 18 16 16 16 16 16 17 18 19 19 19 19 19 20 22 23 24 24
24 24 24 26 27 28 30 30 29 27 26 25 24 23 22 21 20 19 18 18 18 18 18 19 19 19 19 19 20 20 20 19 19 20 21 20 18 17 14 13 14 15 17 17 17 16 16 16 16 16 17 18 19 19 19 19 20 21 23 24 24 25
24 24 24 26 27 29 30 29 27 26 25 25 23 22 22 21 20 19 18 18 18 19 20 20 20 20 19 19 20 20 20 20 19 20 21 20 18 14 12 13 15 16 17 17 17 16 15 15 15 16 17 18 18 19 19 20 21 22 24 25 25 26
26 26 26 28 29 29 30 28 26 25 25 24 22 21 21 21 20 18 18 18 19 20 21 21 20 20 20 20 21 21 21 20 18 19 19 17 15 11 12 15 16 15 15 15 15 15 14 14 15 16 17 18 18 19 20 21 22 24 25 26 26 27
29 28 28 29 30 30 29 26 24 24 24 22 20 20 21 20 19 18 18 19 20 21 21 21 20 20 20 21 21 21 21 19 17 17 15 13 12 10 13 15 14 13 14 13 13 14 14 14 15 16 17 18 18 20 21 22 24 25 26 27 28 29